SCP
0 0 0 0 0 0 0 0 0 0 0 0 0 0 0 0 0 0 0 0 0 0 0 -0 0 0 0 0 0 0 0 0 0 0 0 0 0 0 0 0 0 0 0 0 0
0 0 0 0 0 0 0 0 0 0 0 0 0 0 0 0 0 0 0 0 0 0 0 0 0 0 0 0 0 0 0 0 0 0 0 0 0 0 0 0 0 0 0 0 0
0 0 0 0 0 0 0 0 0 0 0 0 0 0 0 0 0 0 0 0 0 0 0 0 0 0 0 -0 -0 -0 0 0 0 0 0 0 0 0 0 0 0 0 0 0 0
0 0 0 0 0 0 0 0 0 0 0 0 0 0 0 0 0 0 0 0 0 0 0 0 -0 0 0 0 -0 0 0 0 0 0 0 0 0 0 0 0 0 0 0 0 0
0 0 0 0 0 0 0 0 0 0 0 0 0 0 0 0 0 0 0 0 0 0 0 -0 0 -0 -0 -0 0 0 0 -0 0 0 0 0 0 0 0 0 0 0 0 0 0
0 0 0 0 0 0 0 0 0 0 0 0 0 0 0 0 0 0 0 0 0 0 0 -0 -0 -0 0 -0 0 0 0 -0 0 0 0 0 0 0 0 0 0 0 0 0 0
0 0 0 0 0 0 0 0 0 0 0 0 0 0 0 0 0 0 0 0 0 0 0 -0 -0 -0 0 0 0 0 0 -0 0 0 0 0 0 0 0 -0 -0 -0 -0 0 0
0 0 0 0 0 0 0 0 0 0 0 0 0 0 0 0 0 0 0 0 0 0 0 0 0 0 -0 0 0 -0 0 0 0 0 0 0 0 0 0 -0 -0 -0 -0 -0 0
0 0 0 0 0 0 0 0 0 0 0 0 0 0 0 0 0 0 0 0 0 0 0 0 0 0 0 0 0 -0 0 -0 -0 0 0 0 0 0 0 0 0 -0 -0 -0 -0
0 0 0 0 0 0 0 0 0 0 0 0 0 0 0 0 0 0 0 0 0 0 0 0 0 0 0 0 -0 0 0 0 0 0 0 0 0 0 0 0 -0 0 0 -0 0
0 0 0 0 0 0 0 0 0 0 0 0 0 0 0 0 0 0 0 0 0 0 0 0 0 0 0 0 0 0 0 0 0 0 0 0 0 0 0 0 0 0 -0 -0 0
0 0 0 0 0 0 0 0 0 0 0 0 0 0 0 0 0 0 0 0 0 0 0 0 0 0 0 0 0 0 0 0 0 0 0 0 0 0 0 0 0 0 -0 0 -0
0 0 0 0 0 0 0 0 0 0 0 0 0 0 0 0 0 0 0 0 0 0 0 0 0 0 0 0 0 0 0 0 0 0 0 0 0 0 0 0 0 0 0 0 -0
0 0 0 0 0 0 0 0 0 0 0 0 0 0 0 0 0 0 0 0 0 0 0 0 0 0 0 0 0 0 0 0 0 0 0 0 0 -0 -0 0 0 0 0 0 0
0 0 0 0 0 0 0 0 0 0 0 0 0 -0 0 0 -0 0 0 0 0 0 0 0 0 0 0 0 0 0 0 0 0 0 0 0 0 -0 -0 -0 -0 0 0 0 0
0 0 0 0 0 0 0 0 0 0 0 0 0 0 0 0 0 0 0 0 0 0 0 0 0 0 0 0 0 0 0 0 0 0 0 0 0 0 -0 -0 -0 -0 -0 -0 -0
0 0 0 0 0 0 0 0 0 0 0 0 0 0 0 0 0 -0 0 0 0 0 0 0 0 0 0 0 0 0 0 0 0 0 0 0 0 0 0 0 -0 -0 -0 0 0
0 0 0 0 0 0 0 0 0 0 0 -0 0 0 0 0 0 -0 0 0 0 0 0 0 0 0 0 0 0 0 0 0 0 0 0 0 0 0 0 0 0 0 -0 -0 -0
0 0 0 0 0 0 0 0 0 0 0 0 0 0 0 0 0 0 0 0 0 0 0 0 0 0 0 0 0 0 0 0 0 0 0 0 0 0 0 0 0 0 -0 -0 0
0 0 0 0 0 0 0 0 0 0 0 0 0 0 0 -0 0 0 0 0 0 0 0 0 0 0 0 0 0 0 0 0 0 0 0 0 0 0 0 0 0 0 0 0 0
0 0 0 0 0 0 0 0 0 0 0 0 0 0 0 0 0 0 0 0 0 0 0 0 0 0 0 0 0 0 0 0 0 0 0 0 0 0 0 0 0 0 0 0 0
0 0 0 0 0 0 0 0 0 0 0 0 0 0 0 0 0 0 0 0 0 0 0 0 0 0 0 0 0 0 0 0 0 0 0 0 0 0 0 0 0 0 0 0 0
0 0 0 0 0 0 0 0 0 0 0 0 0 0 0 0 0 0 0 0 0 0 0 0 0 0 0 0 0 0 0 0 0 0 0 0 0 0 0 0 0 0 0 0 0
0 0 0 0 0 0 0 0 0 0 0 0 0 0 0 0 0 0 0 0 0 0 0 0 0 0 0 0 0 0 0 0 0 0 0 0 0 0 0 0 0 0 0 0 0
0 0 0 0 0 0 0 0 0 0 0 0 0 0 0 0 0 0 0 0 0 0 0 0 0 0 0 0 0 0 0 0 0 0 0 0 0 0 0 -0 -0 -0 0 0 0
0 0 0 0 0 0 0 0 0 0 0 0 0 0 0 0 0 0 0 0 0 0 0 0 0 0 0 0 0 0 0 0 -0 0 -0 0 -0 0 0 0 0 0 -0 -0 0
0 0 0 0 0 0 0 0 0 0 0 0 0 0 0 0 0 0 0 0 0 0 0 0 0 0 0 0 0 0 0 0 0 0 0 0 0 0 0 0 -0 -0 -0 -0 0
Wind_Speed_500mb
9 10 11 12 14 15 16 17 17 18 18 19 16 13 6 8 26 26 33 35 38 35 29 23 13 17 22 24 21 9 9 6 9 10 15 26 15 16 24 29 26 32 38 45 62
10 9 10 11 12 13 14 16 16 15 16 17 15 13 7 5 12 46 37 32 37 34 34 18 23 21 17 16 15 15 8 4 3 6 10 35 31 44 17 38 37 42 42 44 50
9 9 9 9 12 13 14 15 14 15 15 14 12 11 9 5 8 29 30 28 36 39 26 17 11 20 21 21 18 9 7 4 6 22 16 18 29 10 17 12 33 45 55 63 51
8 7 7 9 10 11 12 14 14 15 14 12 10 9 17 6 6 20 24 28 34 38 27 34 13 12 12 10 10 12 10 4 10 23 15 13 29 18 21 38 51 62 57 60 66
8 7 6 7 10 11 11 12 14 14 12 9 8 8 8 18 16 17 17 23 27 35 48 25 36 13 10 9 9 10 1 4 19 34 11 26 27 20 23 65 71 52 45 50 32
8 7 6 7 9 10 10 11 12 11 9 8 6 8 8 14 17 17 13 18 26 34 44 45 24 28 21 8 10 3 4 12 23 42 6 31 14 20 56 75 51 20 13 11 14
9 7 6 6 7 9 10 10 9 8 7 6 11 19 25 15 15 14 13 16 24 28 35 37 31 13 10 8 9 3 2 9 9 38 8 53 8 35 58 62 55 32 26 30 30
10 8 6 6 7 7 8 9 6 5 5 6 9 7 13 12 13 12 14 15 17 21 24 25 22 23 11 13 9 7 9 7 10 36 20 27 19 35 62 53 46 42 39 28 45
10 8 5 5 6 7 7 5 4 5 7 9 9 9 10 9 8 17 15 13 11 14 22 17 13 14 8 7 8 14 2 8 13 16 16 22 17 35 48 36 37 38 43 51 65
11 9 7 4 4 4 3 2 7 8 7 11 13 11 9 5 8 14 10 11 10 8 7 10 11 9 10 9 2 5 6 4 6 12 12 24 19 22 42 42 40 43 44 61 67
13 10 7 3 2 2 2 7 7 5 16 14 11 11 9 6 10 13 8 6 8 14 8 11 13 3 3 4 7 12 7 3 7 6 7 14 17 20 38 45 46 41 56 72 69
13 9 6 4 1 0 4 6 7 15 20 16 13 13 12 7 3 17 9 3 6 6 5 11 4 6 8 9 7 6 5 6 9 6 1 10 12 12 27 31 34 49 64 63 67
15 10 7 5 2 2 6 9 14 15 10 10 12 9 6 7 8 18 13 5 8 7 7 9 2 13 1 4 6 6 7 5 9 3 3 3 14 11 5 29 44 53 52 67 57
16 12 10 6 4 8 7 10 11 10 9 11 7 9 8 5 8 14 13 6 8 6 6 5 5 4 2 7 3 7 9 9 6 5 1 4 4 10 11 17 31 36 45 47 54
19 15 12 9 8 9 10 10 8 7 6 3 5 6 9 8 0 10 14 7 6 5 5 2 7 2 5 7 3 14 2 9 9 4 4 8 6 7 13 20 22 29 33 40 47
22 19 15 12 10 11 12 11 9 11 6 3 4 6 4 11 7 10 5 8 8 6 6 3 3 4 5 4 7 11 8 5 7 4 6 7 5 5 5 7 12 25 29 33 42
24 21 17 13 13 15 13 12 10 9 9 8 2 6 6 8 7 13 9 11 6 9 9 11 3 5 3 6 4 7 6 6 10 9 5 7 1 7 7 3 3 14 23 25 30
28 22 20 15 15 16 13 9 10 4 10 5 2 5 8 9 7 11 5 6 9 7 6 5 11 3 7 1 2 7 4 7 3 4 9 10 2 1 5 12 2 8 9 11 21
26 25 21 18 15 13 8 8 15 14 11 16 5 8 6 2 5 5 5 4 0 6 6 5 8 6 4 5 3 5 7 2 9 4 4 5 4 9 2 7 5 1 4 10 16
29 25 21 19 18 13 8 6 3 4 4 3 8 3 7 6 4 6 2 3 2 3 4 5 6 3 5 1 5 4 6 5 6 6 8 9 6 6 11 13 11 11 11 8 11
31 17 20 21 17 5 7 11 7 9 3 5 9 7 5 7 4 2 6 4 3 3 3 6 6 8 4 3 3 4 3 7 4 4 5 5 10 9 17 17 16 22 16 13 11
28 7 25 26 6 6 4 10 5 5 6 3 3 6 8 10 6 4 7 7 8 8 5 2 5 6 3 4 5 0 3 3 6 6 1 3 11 3 11 32 38 30 26 22 20
33 12 24 28 7 1 3 2 6 4 3 2 1 2 1 8 7 5 7 5 9 8 9 8 3 7 14 9 6 4 5 2 4 4 10 8 10 1 7 25 43 44 37 32 30
24 7 9 13 3 13 11 2 4 7 5 2 2 3 6 5 8 9 9 5 6 6 9 4 5 10 10 9 5 7 7 8 6 5 7 12 7 10 12 17 37 45 45 44 39
17 6 13 7 11 9 6 8 9 8 5 8 6 10 10 6 4 5 3 5 2 6 3 8 8 2 9 11 7 12 18 14 21 13 13 7 16 13 21 29 54 59 50 47 45
25 18 15 11 25 14 4 15 19 8 15 8 10 12 10 10 10 16 14 9 9 5 7 2 4 5 8 7 3 13 26 27 31 26 24 26 46 21 28 33 50 62 63 60 57
37 34 21 19 12 9 11 13 19 20 21 9 19 11 11 12 4 11 11 14 19 15 8 5 10 5 10 7 12 15 15 21 10 12 24 22 25 12 12 31 59 73 74 72 65
Wind_Direction_500mb
302 318 331 338 342 345 349 347 354 358 3 4 14 23 34 74 33 39 41 22 16 23 29 37 69 79 66 59 57 62 60 43 1 1 295 314 335 308 314 279 288 290 282 285 296
294 311 321 329 334 340 343 342 350 356 360 2 12 17 27 147 27 38 37 35 29 24 28 47 61 61 60 38 39 59 76 349 271 283 275 296 297 292 298 300 295 298 301 285 285
285 301 312 324 331 337 341 340 347 353 353 0 17 31 32 100 78 23 37 38 30 26 20 37 78 69 62 45 20 46 93 332 313 302 302 295 300 292 291 284 289 297 304 301 308
268 282 303 317 326 332 338 337 346 351 347 3 23 73 59 71 93 21 42 40 38 28 36 47 65 64 67 64 29 101 64 42 313 331 305 306 306 292 263 279 306 297 295 296 304
257 273 293 310 322 329 336 340 345 348 350 15 35 99 77 73 61 45 47 41 35 30 42 59 59 78 91 97 78 73 282 306 339 341 338 336 294 271 291 322 319 300 289 295 299
249 261 279 306 317 326 338 340 346 350 0 24 50 74 92 79 59 40 37 32 33 36 42 53 67 90 91 71 66 82 258 302 356 360 339 346 306 349 335 343 350 344 25 21 314
240 251 277 297 314 329 338 340 346 1 13 50 102 88 85 86 58 36 41 40 35 37 45 50 57 77 101 91 76 51 122 345 326 0 356 343 344 356 345 358 12 56 47 29 8
232 247 262 295 313 327 343 339 348 29 56 73 141 84 83 75 56 34 39 44 46 40 45 45 55 65 61 108 56 36 61 11 3 17 353 8 338 353 351 7 338 13 8 6 19
219 234 256 290 313 333 344 349 15 56 81 83 108 107 85 77 47 36 43 48 51 55 46 46 54 62 50 74 37 15 73 3 340 43 1 13 342 341 354 4 8 6 357 20 22
213 224 250 270 312 330 343 95 103 92 87 91 85 107 82 20 41 16 31 49 51 65 62 41 56 68 18 49 94 279 34 323 296 331 352 3 351 353 359 8 13 3 9 17 26
213 232 244 264 310 330 155 142 150 85 67 81 69 87 68 68 64 22 55 76 70 56 50 25 63 85 282 68 119 121 117 246 256 281 4 349 335 14 5 16 13 2 14 18 25
216 237 243 249 203 333 190 197 168 138 92 66 78 83 64 71 91 27 50 85 67 72 359 29 101 177 149 169 151 125 139 279 286 277 47 339 305 42 13 15 23 25 21 16 30
214 217 233 242 195 119 162 154 135 132 84 48 54 58 37 59 55 14 26 49 74 70 22 123 202 150 334 296 337 195 162 195 221 284 26 4 324 345 39 31 31 34 31 43 40
213 203 210 206 198 176 156 144 139 148 81 336 353 30 13 68 51 26 22 36 39 115 127 88 139 161 249 291 123 303 163 157 218 23 313 193 219 325 347 11 34 28 30 36 48
195 199 194 192 183 183 163 147 143 137 60 299 344 17 29 74 40 16 26 33 85 94 90 255 159 175 252 240 170 247 43 194 173 208 124 352 86 317 10 0 357 8 27 43 52
191 187 184 170 171 163 155 140 131 49 254 38 314 355 69 29 27 355 53 63 70 73 20 18 305 176 259 289 231 310 321 144 98 123 42 283 143 329 346 320 318 357 17 34 50
183 178 173 169 163 157 153 142 47 115 356 286 58 24 99 9 35 28 28 22 80 54 358 340 336 308 314 309 251 352 20 350 7 14 207 263 84 218 204 265 330 347 355 31 54
175 172 167 166 156 157 150 57 82 232 220 242 190 113 94 349 32 8 73 48 45 70 96 115 329 331 345 64 237 12 43 126 252 333 294 292 347 197 177 144 3 9 5 35 55
172 165 165 163 164 164 137 63 191 200 164 157 90 78 346 147 140 96 71 141 257 46 138 82 294 334 18 338 17 349 39 186 104 64 35 269 266 307 126 173 195 126 359 33 63
174 164 165 166 161 160 88 203 177 226 128 153 136 119 164 253 114 72 81 245 82 68 136 145 348 298 311 347 26 55 156 22 12 35 326 301 277 226 235 230 183 212 179 149 96
171 153 169 171 157 146 151 191 209 208 190 186 171 120 198 169 133 139 149 145 177 131 82 144 115 281 16 334 176 29 6 51 104 112 162 314 278 206 202 205 193 196 186 158 134
171 107 169 166 104 52 129 167 119 170 204 279 93 101 154 165 119 122 149 169 173 157 122 158 125 275 239 333 334 338 297 187 127 242 197 160 273 180 212 196 188 191 182 174 160
155 114 164 173 131 280 276 48 123 104 210 236 35 117 243 145 98 154 200 193 177 151 162 177 352 357 343 359 4 293 219 183 103 76 207 144 263 181 166 177 190 180 187 182 175
150 112 128 176 179 142 150 145 126 173 152 194 172 127 111 66 5 177 175 167 190 149 130 147 129 164 196 206 209 268 228 213 198 147 196 229 250 202 199 196 190 190 190 187 186
153 169 161 187 230 170 107 118 129 169 151 168 325 232 176 110 70 222 318 140 133 168 110 120 181 183 254 249 241 244 238 211 211 225 200 247 218 230 204 201 199 191 190 192 193
152 144 141 124 145 123 198 203 165 168 141 236 190 195 197 164 192 190 146 201 185 149 165 45 196 122 295 338 303 266 242 225 233 237 265 270 276 209 226 205 198 199 193 198 199
181 158 168 153 142 125 208 183 196 144 199 174 183 128 193 225 96 70 105 124 158 148 143 120 131 89 267 329 328 298 228 198 198 211 209 217 239 166 185 198 203 202 202 202 203
Wind_Speed_850mb
9 10 11 12 14 15 16 17 17 18 18 19 16 13 6 8 26 26 33 35 38 35 29 23 13 17 22 24 21 9 9 6 9 10 15 26 15 16 24 29 26 32 38 45 62
10 9 10 11 12 13 14 16 16 15 16 17 15 13 7 5 12 46 37 32 37 34 34 18 23 21 17 16 15 15 8 4 3 6 10 35 31 44 17 38 37 42 42 44 50
9 9 9 9 12 13 14 15 14 15 15 14 12 11 9 5 8 29 30 28 36 39 26 17 11 20 21 21 18 9 7 4 6 22 16 18 29 10 17 12 33 45 55 63 51
8 7 7 9 10 11 12 14 14 15 14 12 10 9 17 6 6 20 24 28 34 38 27 34 13 12 12 10 10 12 10 4 10 23 15 13 29 18 21 38 51 62 57 60 66
8 7 6 7 10 11 11 12 14 14 12 9 8 8 8 18 16 17 17 23 27 35 48 25 36 13 10 9 9 10 1 4 19 34 11 26 27 20 23 65 71 52 45 50 32
8 7 6 7 9 10 10 11 12 11 9 8 6 8 8 14 17 17 13 18 26 34 44 45 24 28 21 8 10 3 4 12 23 42 6 31 14 20 56 75 51 20 13 11 14
9 7 6 6 7 9 10 10 9 8 7 6 11 19 25 15 15 14 13 16 24 28 35 37 31 13 10 8 9 3 2 9 9 38 8 53 8 35 58 62 55 32 26 30 30
10 8 6 6 7 7 8 9 6 5 5 6 9 7 13 12 13 12 14 15 17 21 24 25 22 23 11 13 9 7 9 7 10 36 20 27 19 35 62 53 46 42 39 28 45
10 8 5 5 6 7 7 5 4 5 7 9 9 9 10 9 8 17 15 13 11 14 22 17 13 14 8 7 8 14 2 8 13 16 16 22 17 35 48 36 37 38 43 51 65
11 9 7 4 4 4 3 2 7 8 7 11 13 11 9 5 8 14 10 11 10 8 7 10 11 9 10 9 2 5 6 4 6 12 12 24 19 22 42 42 40 43 44 61 67
13 10 7 3 2 2 2 7 7 5 16 14 11 11 9 6 10 13 8 6 8 14 8 11 13 3 3 4 7 12 7 3 7 6 7 14 17 20 38 45 46 41 56 72 69
13 9 6 4 1 0 4 6 7 15 20 16 13 13 12 7 3 17 9 3 6 6 5 11 4 6 8 9 7 6 5 6 9 6 1 10 12 12 27 31 34 49 64 63 67
15 10 7 5 2 2 6 9 14 15 10 10 12 9 6 7 8 18 13 5 8 7 7 9 2 13 1 4 6 6 7 5 9 3 3 3 14 11 5 29 44 53 52 67 57
16 12 10 6 4 8 7 10 11 10 9 11 7 9 8 5 8 14 13 6 8 6 6 5 5 4 2 7 3 7 9 9 6 5 1 4 4 10 11 17 31 36 45 47 54
19 15 12 9 8 9 10 10 8 7 6 3 5 6 9 8 0 10 14 7 6 5 5 2 7 2 5 7 3 14 2 9 9 4 4 8 6 7 13 20 22 29 33 40 47
22 19 15 12 10 11 12 11 9 11 6 3 4 6 4 11 7 10 5 8 8 6 6 3 3 4 5 4 7 11 8 5 7 4 6 7 5 5 5 7 12 25 29 33 42
24 21 17 13 13 15 13 12 10 9 9 8 2 6 6 8 7 13 9 11 6 9 9 11 3 5 3 6 4 7 6 6 10 9 5 7 1 7 7 3 3 14 23 25 30
28 22 20 15 15 16 13 9 10 4 10 5 2 5 8 9 7 11 5 6 9 7 6 5 11 3 7 1 2 7 4 7 3 4 9 10 2 1 5 12 2 8 9 11 21
26 25 21 18 15 13 8 8 15 14 11 16 5 8 6 2 5 5 5 4 0 6 6 5 8 6 4 5 3 5 7 2 9 4 4 5 4 9 2 7 5 1 4 10 16
29 25 21 19 18 13 8 6 3 4 4 3 8 3 7 6 4 6 2 3 2 3 4 5 6 3 5 1 5 4 6 5 6 6 8 9 6 6 11 13 11 11 11 8 11
31 17 20 21 17 5 7 11 7 9 3 5 9 7 5 7 4 2 6 4 3 3 3 6 6 8 4 3 3 4 3 7 4 4 5 5 10 9 17 17 16 22 16 13 11
28 7 25 26 6 6 4 10 5 5 6 3 3 6 8 10 6 4 7 7 8 8 5 2 5 6 3 4 5 0 3 3 6 6 1 3 11 3 11 32 38 30 26 22 20
33 12 24 28 7 1 3 2 6 4 3 2 1 2 1 8 7 5 7 5 9 8 9 8 3 7 14 9 6 4 5 2 4 4 10 8 10 1 7 25 43 44 37 32 30
24 7 9 13 3 13 11 2 4 7 5 2 2 3 6 5 8 9 9 5 6 6 9 4 5 10 10 9 5 7 7 8 6 5 7 12 7 10 12 17 37 45 45 44 39
17 6 13 7 11 9 6 8 9 8 5 8 6 10 10 6 4 5 3 5 2 6 3 8 8 2 9 11 7 12 18 14 21 13 13 7 16 13 21 29 54 59 50 47 45
25 18 15 11 25 14 4 15 19 8 15 8 10 12 10 10 10 16 14 9 9 5 7 2 4 5 8 7 3 13 26 27 31 26 24 26 46 21 28 33 50 62 63 60 57
37 34 21 19 12 9 11 13 19 20 21 9 19 11 11 12 4 11 11 14 19 15 8 5 10 5 10 7 12 15 15 21 10 12 24 22 25 12 12 31 59 73 74 72 65
Wind_Direction_850mb
302 318 331 338 342 345 349 347 354 358 3 4 14 23 34 74 33 39 41 22 16 23 29 37 69 79 66 59 57 62 60 43 1 1 295 314 335 308 314 279 288 290 282 285 296
294 311 321 329 334 340 343 342 350 356 360 2 12 17 27 147 27 38 37 35 29 24 28 47 61 61 60 38 39 59 76 349 271 283 275 296 297 292 298 300 295 298 301 285 285
285 301 312 324 331 337 341 340 347 353 353 0 17 31 32 100 78 23 37 38 30 26 20 37 78 69 62 45 20 46 93 332 313 302 302 295 300 292 291 284 289 297 304 301 308
268 282 303 317 326 332 338 337 346 351 347 3 23 73 59 71 93 21 42 40 38 28 36 47 65 64 67 64 29 101 64 42 313 331 305 306 306 292 263 279 306 297 295 296 304
257 273 293 310 322 329 336 340 345 348 350 15 35 99 77 73 61 45 47 41 35 30 42 59 59 78 91 97 78 73 282 306 339 341 338 336 294 271 291 322 319 300 289 295 299
249 261 279 306 317 326 338 340 346 350 0 24 50 74 92 79 59 40 37 32 33 36 42 53 67 90 91 71 66 82 258 302 356 360 339 346 306 349 335 343 350 344 25 21 314
240 251 277 297 314 329 338 340 346 1 13 50 102 88 85 86 58 36 41 40 35 37 45 50 57 77 101 91 76 51 122 345 326 0 356 343 344 356 345 358 12 56 47 29 8
232 247 262 295 313 327 343 339 348 29 56 73 141 84 83 75 56 34 39 44 46 40 45 45 55 65 61 108 56 36 61 11 3 17 353 8 338 353 351 7 338 13 8 6 19
219 234 256 290 313 333 344 349 15 56 81 83 108 107 85 77 47 36 43 48 51 55 46 46 54 62 50 74 37 15 73 3 340 43 1 13 342 341 354 4 8 6 357 20 22
213 224 250 270 312 330 343 95 103 92 87 91 85 107 82 20 41 16 31 49 51 65 62 41 56 68 18 49 94 279 34 323 296 331 352 3 351 353 359 8 13 3 9 17 26
213 232 244 264 310 330 155 142 150 85 67 81 69 87 68 68 64 22 55 76 70 56 50 25 63 85 282 68 119 121 117 246 256 281 4 349 335 14 5 16 13 2 14 18 25
216 237 243 249 203 333 190 197 168 138 92 66 78 83 64 71 91 27 50 85 67 72 359 29 101 177 149 169 151 125 139 279 286 277 47 339 305 42 13 15 23 25 21 16 30
214 217 233 242 195 119 162 154 135 132 84 48 54 58 37 59 55 14 26 49 74 70 22 123 202 150 334 296 337 195 162 195 221 284 26 4 324 345 39 31 31 34 31 43 40
213 203 210 206 198 176 156 144 139 148 81 336 353 30 13 68 51 26 22 36 39 115 127 88 139 161 249 291 123 303 163 157 218 23 313 193 219 325 347 11 34 28 30 36 48
195 199 194 192 183 183 163 147 143 137 60 299 344 17 29 74 40 16 26 33 85 94 90 255 159 175 252 240 170 247 43 194 173 208 124 352 86 317 10 0 357 8 27 43 52
191 187 184 170 171 163 155 140 131 49 254 38 314 355 69 29 27 355 53 63 70 73 20 18 305 176 259 289 231 310 321 144 98 123 42 283 143 329 346 320 318 357 17 34 50
183 178 173 169 163 157 153 142 47 115 356 286 58 24 99 9 35 28 28 22 80 54 358 340 336 308 314 309 251 352 20 350 7 14 207 263 84 218 204 265 330 347 355 31 54
175 172 167 166 156 157 150 57 82 232 220 242 190 113 94 349 32 8 73 48 45 70 96 115 329 331 345 64 237 12 43 126 252 333 294 292 347 197 177 144 3 9 5 35 55
172 165 165 163 164 164 137 63 191 200 164 157 90 78 346 147 140 96 71 141 257 46 138 82 294 334 18 338 17 349 39 186 104 64 35 269 266 307 126 173 195 126 359 33 63
174 164 165 166 161 160 88 203 177 226 128 153 136 119 164 253 114 72 81 245 82 68 136 145 348 298 311 347 26 55 156 22 12 35 326 301 277 226 235 230 183 212 179 149 96
171 153 169 171 157 146 151 191 209 208 190 186 171 120 198 169 133 139 149 145 177 131 82 144 115 281 16 334 176 29 6 51 104 112 162 314 278 206 202 205 193 196 186 158 134
171 107 169 166 104 52 129 167 119 170 204 279 93 101 154 165 119 122 149 169 173 157 122 158 125 275 239 333 334 338 297 187 127 242 197 160 273 180 212 196 188 191 182 174 160
155 114 164 173 131 280 276 48 123 104 210 236 35 117 243 145 98 154 200 193 177 151 162 177 352 357 343 359 4 293 219 183 103 76 207 144 263 181 166 177 190 180 187 182 175
150 112 128 176 179 142 150 145 126 173 152 194 172 127 111 66 5 177 175 167 190 149 130 147 129 164 196 206 209 268 228 213 198 147 196 229 250 202 199 196 190 190 190 187 186
153 169 161 187 230 170 107 118 129 169 151 168 325 232 176 110 70 222 318 140 133 168 110 120 181 183 254 249 241 244 238 211 211 225 200 247 218 230 204 201 199 191 190 192 193
152 144 141 124 145 123 198 203 165 168 141 236 190 195 197 164 192 190 146 201 185 149 165 45 196 122 295 338 303 266 242 225 233 237 265 270 276 209 226 205 198 199 193 198 199
181 158 168 153 142 125 208 183 196 144 199 174 183 128 193 225 96 70 105 124 158 148 143 120 131 89 267 329 328 298 228 198 198 211 209 217 239 166 185 198 203 202 202 202 203